Location: Peach Mountain Observatory
(42.3967°N, 83.9367°W)
Time: 08:59:34
(UTC-05:00)

Vanguard 2 - Pass Details

Date: 31 January 2020
Orbit: 552 x 2939 km, 32.9° (Epoch: 25 February)

Event Time Altitude Azimuth Distance (km) Brightness Sun altitude
Rises 05:44:46 0° 180° (S) 6,653 12.3 -23.4°
Reaches altitude 10° 05:53:55 10° 155° (SSE) 5,761 12.3 -21.7°
Maximum altitude 05:59:24 12° 137° (SE) 5,519 12.5 -20.7°
Drops below altitude 10° 06:04:42 10° 118° (ESE) 5,562 12.9 -19.8°
Sets 06:12:52 0° 93° (E) 6,177 13.9 -18.3°
